Location: Audenfort
(50.7829°N, 1.9701°E)
Time: 08:45:28
(UTC+00:00)

Daily predictions for brighter satellites

Satellite Brightness Start Highest point End
(mag) Time Altitude Azimuth Time Altitude Azimuth Time Altitude Azimuth
CZ-4C R/B 2.9 16:44:23 10° NW 16:51:15 67° NE 16:59:15 10° ESE
USA 234 3.9 16:46:02 10° SE 16:52:31 64° SW 16:59:00 10° WNW
Cosmos 2322 3.9 16:47:38 10° NNW 16:53:19 81° WSW 16:58:59 10° SSE
NOAA 12 4.4 16:48:28 10° SE 16:53:26 47° ENE 16:58:27 10° N
IRS-1C Rocket 4.1 16:50:32 10° SSE 16:55:45 68° ENE 17:00:59 10° NNW
ALOS 4.2 16:52:38 10° SSW 16:56:55 35° W 17:01:14 10° NNW
Helios 1A Rocket 3.5 16:53:43 10° S 16:57:43 63° WSW 17:01:46 10° NNW
CORIOLIS 4.2 16:53:22 10° SSE 16:58:40 63° ENE 17:03:59 10° N
COBE Rocket 4.0 16:55:47 10° NNE 17:00:56 76° ESE 17:06:07 10° S
Cosmos 1980 4.2 16:55:38 10° NNW 17:00:58 39° NE 17:06:16 10° ESE
COSMO-SKYMED 1 4.0 16:57:58 10° NE 17:01:01 18° E 17:04:02 10° SE
Starlink AQ 4.0 17:00:58 10° SSW 17:03:35 30° SSE 17:06:13 10° E
Cosmos 2297 Rocket 4.0 17:01:27 10° ESE 17:03:36 12° E 17:05:45 10° ENE
Cosmos 2360 Rocket 3.7 16:59:34 10° NW 17:04:52 42° WSW 17:10:06 10° S
Nadezhda 3 Rocket 4.3 16:59:17 10° N 17:05:21 47° ENE 17:11:25 10° SSE
Cosmos 1726 Rocket 4.4 17:01:15 10° NNW 17:05:31 55° W 17:09:45 10° S
Starlink AS 3.9 17:03:12 10° SSW 17:05:50 31° SSE 17:08:28 10° E
Starlink BA 3.9 17:03:25 10° SSW 17:06:03 31° SSE 17:08:42 10° E
Starlink AU 3.9 17:03:38 10° SSW 17:06:17 31° SSE 17:08:56 10° E
Starlink AT 3.9 17:03:52 10° SSW 17:06:30 31° SSE 17:09:09 10° E
Starlink BB 3.9 17:04:05 10° SSW 17:06:44 31° SSE 17:09:23 10° E
Starlink BC 3.9 17:04:18 10° SSW 17:06:57 31° SSE 17:09:36 10° E
Starlink BK 3.9 17:04:32 10° SSW 17:07:10 31° SSE 17:09:50 10° E
Starlink AY 3.9 17:04:45 10° SSW 17:07:24 31° SSE 17:10:03 10° E
Starlink AW 3.9 17:04:58 10° SSW 17:07:37 31° SSE 17:10:17 10° E
Starlink BJ 3.9 17:05:11 10° SSW 17:07:50 32° SSE 17:10:30 10° E
Starlink AV 3.9 17:05:23 10° SSW 17:08:02 32° SSE 17:10:43 10° E
Starlink BD 3.9 17:05:37 10° SSW 17:08:16 32° SSE 17:10:57 10° E
Starlink BE 3.9 17:05:48 10° SSW 17:08:28 32° SSE 17:11:08 10° E
H-2A R/B 2.7 17:04:45 10° SSE 17:08:35 86° ENE 17:12:30 10° NNW
Starlink BM 3.9 17:06:03 10° SSW 17:08:43 32° SSE 17:11:23 10° E
Starlink AX 3.9 17:06:16 10° SSW 17:08:56 32° SSE 17:11:35 10° E
Starlink BH 3.8 17:06:30 10° SSW 17:09:10 32° SSE 17:11:49 10° E
Starlink AZ 3.8 17:06:42 10° SSW 17:09:23 32° SSE 17:12:01 10° E
Starlink BG 3.8 17:06:55 10° SSW 17:09:36 32° SSE 17:12:14 10° E
Cosmos 1125 Rocket 4.3 17:05:05 10° SSE 17:09:37 31° ESE 17:14:11 10° NE
Starlink BF 3.8 17:07:09 10° SW 17:09:49 33° SSE 17:12:27 10° E
Starlink BL 3.8 17:07:20 10° SW 17:10:01 33° SSE 17:12:38 10° E
Starlink AH 3.8 17:07:34 10° SW 17:10:15 33° SSE 17:12:52 10° E
Starlink AC 3.8 17:07:48 10° SW 17:10:30 33° SSE 17:13:06 11° E
Starlink X 3.8 17:08:01 10° SW 17:10:42 33° SSE 17:13:18 11° E
Starlink AE 3.8 17:08:12 10° SW 17:10:53 33° SSE 17:13:29 11° E
Starlink Z 3.8 17:08:29 10° SW 17:11:10 33° SSE 17:13:45 11° E
Starlink AK 3.8 17:08:41 10° SW 17:11:22 33° SSE 17:13:57 11° E
Starlink AL 3.8 17:08:55 10° SW 17:11:36 34° SSE 17:14:10 11° E
Starlink AD 3.8 17:09:08 10° SW 17:11:50 34° SSE 17:14:23 11° E
Okean-O 2.8 17:07:58 10° SE 17:12:14 49° ENE 17:16:31 10° N
Starlink Y 3.8 17:09:35 10° SW 17:12:16 34° SSE 17:14:49 11° E
Starlink AG 3.8 17:09:50 10° SW 17:12:31 34° SSE 17:15:03 11° E
Cosmos 2219 Rocket 2.3 17:06:56 10° NNW 17:12:41 89° ENE 17:18:22 10° SSE
Starlink W 3.7 17:10:01 10° SW 17:12:44 34° SSE 17:15:16 11° E
Starlink AJ 3.7 17:10:15 10° SW 17:12:56 34° SSE 17:15:28 11° E
NOSS 0 Rocket 4.0 17:06:51 10° NNW 17:13:03 62° NE 17:19:12 10° SE
Starlink AM 3.7 17:10:44 10° SW 17:13:26 35° SSE 17:15:56 11° E
Starlink AP 3.7 17:10:55 10° SW 17:13:37 35° SSE 17:16:07 11° E
Starlink AA 3.7 17:11:10 10° SW 17:13:53 35° SSE 17:16:22 12° E
Starlink AF 3.7 17:11:21 10° SW 17:14:04 35° SSE 17:16:33 12° E
Starlink AB 3.7 17:11:35 10° SW 17:14:18 35° SSE 17:16:46 12° E
Starlink AN 3.7 17:11:49 10° SW 17:14:32 35° SSE 17:17:00 12° E
Okean O Rocket 3.4 17:10:45 10° SSW 17:14:51 37° W 17:19:01 10° NNW
COSMOS 2428 2.8 17:09:15 10° NNW 17:15:02 90° NE 17:20:47 10° SSE
Cosmos 2227 Rocket 3.8 17:12:49 10° SE 17:15:36 14° E 17:18:07 11° ENE
ATLAS CENTAUR R/B 3.2 17:13:27 10° NNW 17:16:14 16° NNE 17:18:38 11° NE
Cosmos 1626 Rocket 3.9 17:12:25 10° SSE 17:16:30 42° E 17:20:36 10° NNE
Timation 2 Rocket 4.2 17:13:49 10° S 17:19:40 50° ESE 17:25:46 10° NE
Envisat 3.0 17:17:10 10° SSE 17:22:13 71° ENE 17:27:19 10° N
Starlink T 3.5 17:20:54 10° SW 17:23:41 41° SSE 17:25:51 15° E
Cosmos 1269 Rocket 4.3 17:19:38 10° NNW 17:24:46 47° ENE 17:29:51 10° SE
Starlink N 3.4 17:22:07 10° SW 17:24:55 42° SSE 17:27:02 15° E
Starlink Q 3.4 17:23:39 10° SW 17:26:28 43° SSE 17:28:32 16° E
Cosmos 1048 Rocket 4.0 17:21:58 10° NNW 17:27:10 85° WSW 17:32:16 10° SSE
Starlink P 3.3 17:24:58 10° SW 17:27:48 44° SSE 17:29:49 17° E
Alouette 2 Rocket 4.3 17:24:09 10° NNW 17:28:38 84° WSW 17:35:25 10° S
Starlink U 3.3 17:26:18 10° SW 17:29:08 45° SSE 17:31:07 17° E
Starlink B 3.3 17:27:39 10° SW 17:30:30 46° SSE 17:32:26 18° E
CZ-4 R/B 1.8 17:27:10 10° SE 17:30:57 39° ENE 17:34:48 10° N
Cosmos 372 Rocket 3.9 17:29:18 10° SSW 17:34:26 86° ESE 17:39:39 10° NNE
Cosmos 1607 4.0 17:29:39 10° SSW 17:35:43 66° SE 17:41:26 12° NE
ADEOS Rocket 4.4 17:31:13 10° NE 17:35:50 20° E 17:40:43 10° SE
Starlink D 3.2 17:33:09 10° SW 17:36:02 51° SSE 17:37:48 20° E
Starlink S 3.1 17:34:34 10° SW 17:37:28 52° SSE 17:39:11 21° E
SJ 16-02 3.3 17:33:44 10° WSW 17:37:30 27° NW 17:41:18 10° N
Starlink C 3.1 17:35:56 10° SW 17:38:51 53° SSE 17:40:31 22° E
CZ-4B R/B 4.1 17:37:42 10° NNW 17:39:22 14° WNW 17:41:02 10° W
Starlink E 3.1 17:37:22 10° SW 17:40:18 54° SSE 17:41:54 23° E
Starlink J 3.0 17:38:48 10° SW 17:41:43 55° SSE 17:43:18 24° E
Starlink V 3.0 17:40:12 10° SW 17:43:08 57° SSE 17:44:39 25° E
Starlink H 3.0 17:41:39 10° SW 17:44:36 58° SSE 17:46:03 26° E
Starlink F 2.9 17:43:06 10° SW 17:46:02 59° SSE 17:47:28 27° E
Starlink G 2.9 17:44:32 10° SW 17:47:29 61° SSE 17:48:51 28° E
Meteor 2-10 Rocket 4.1 17:43:34 10° N 17:48:35 36° ENE 17:53:23 10° SE
Starlink L 2.9 17:45:58 10° WSW 17:48:56 62° SSE 17:50:15 29° E
SKYMED 2 3.8 17:45:10 10° NNE 17:49:24 49° E 17:53:37 10° S
Starlink A 2.9 17:47:26 10° WSW 17:50:24 63° SSE 17:51:40 30° E
Starlink R 2.8 17:48:54 10° WSW 17:51:52 65° SSE 17:53:05 31° E
ERBS 4.2 17:49:55 10° SSE 17:51:57 15° SE 17:52:10 15° SE
CSL-04 Debris 4.2 17:46:47 10° SE 17:52:01 55° ENE 17:57:18 10° N
Starlink K 2.8 17:50:19 10° WSW 17:53:18 66° SSE 17:54:28 33° E
Starlink M 2.8 17:51:44 10° WSW 17:54:43 68° SSE 17:55:49 34° E
Cosmos 2082 Rocket 4.5 17:53:21 10° NW 17:55:35 12° NNW 17:57:49 10° N
USA 267 3.4 17:54:02 17° ENE 17:59:08 67° NNW 18:05:37 10° W
CZ-2D R/B 3.5 17:57:14 10° SE 18:00:53 44° ENE 18:04:34 10° N
Cosmos 1812 Rocket 3.8 17:57:10 10° NNW 18:01:37 73° W 18:06:05 10° S
USA 116 4.2 18:02:58 28° ESE 18:02:58 28° ESE 18:05:17 10° SSE
ATLAS CENTAUR R/B 4.0 17:56:55 10° WSW 18:02:40 79° NNW 18:15:08 18° ENE
Cosmos 2218 Rocket 4.5 17:57:08 10° SSE 18:02:51 37° E 18:08:38 10° NNE
Cosmos 494 Rocket 4.1 17:58:01 10° NNW 18:03:09 75° WSW 18:08:15 10° SSE
Cosmos 2237 Rocket 2.1 17:57:36 10° NNW 18:03:17 87° ENE 18:08:55 10° SSE
Cosmos 2333 Rocket 3.7 17:58:22 10° NW 18:03:39 39° WSW 18:08:53 10° S
Cosmos 1300 3.8 18:01:07 10° NNW 18:04:49 47° W 18:08:29 10° SSW
Ariane Rocket 3.6 18:01:11 10° SE 18:05:44 34° ENE 18:10:18 10° N
Cosmos 2154 Rocket 4.1 18:04:55 10° SSW 18:11:13 80° W 18:17:30 10° N
YAOGAN 1 2.4 18:07:49 10° SSE 18:12:08 80° ENE 18:16:30 10° NNW
H-2A R/B 3.1 18:15:08 24° NE 18:15:08 24° NE 18:18:23 10° N
Cosmos 1340 Rocket 3.7 18:10:32 10° NNW 18:14:22 51° W 18:18:13 10° S
Meteor 1-21 Rocket 4.2 18:11:06 10° S 18:16:36 62° E 18:22:14 10° NNE
Cosmos-2242 2.9 18:13:41 10° N 18:18:03 70° ENE 18:22:20 10° SSE
Starlink AR 2.5 18:15:36 10° WSW 18:17:52 68° W 18:17:52 68° W
CSL-04 Rocket 3.6 18:15:01 10° SSE 18:20:31 87° ENE 18:26:07 10° NNW
Cosmos 1242 Rocket 4.0 18:17:35 10° SW 18:20:51 36° WNW 18:24:11 10° N
Cosmos 1455 2.2 18:17:11 10° N 18:20:59 56° ENE 18:24:43 10° SSE
NOSS 2-1 (C) 4.2 18:16:06 10° NW 18:21:10 88° NE 18:28:17 10° SE
Cosmos 2251 Rocket 3.8 18:17:11 10° NNW 18:22:16 44° ENE 18:24:10 32° ESE
SL-16 R/B 2.3 18:18:26 10° NNW 18:24:02 55° NE 18:27:14 25° ESE
Cosmos 1626 3.5 18:20:59 10° SW 18:24:29 39° WNW 18:28:00 10° N
NOSS 2-1 (D) 4.3 18:19:53 10° NW 18:24:58 88° SW 18:32:09 10° SE
YAOGAN 6 4.4 18:22:38 10° SSW 18:26:03 34° W 18:29:27 10° NNW
ATLAS 5 CENTAUR R/B 3.1 18:24:02 10° W 18:28:04 31° NNW 18:30:44 19° NNE
Cosmos 1959 Rocket 4.5 18:23:36 10° SSE 18:29:35 55° E 18:35:32 10° NNE
USA 32 4.0 18:25:20 10° S 18:30:34 83° W 18:35:51 10° N
Cosmos 2219 3.1 18:25:39 10° SSW 18:31:14 73° ESE 18:34:24 27° NE
CZ-2C R/B 4.2 18:33:09 27° NE 18:33:09 27° NE 18:36:42 10° N
Cosmos 2082 4.3 18:30:07 10° S 18:34:39 34° ESE 18:34:39 34° ESE
COSMO-SKYMED 1 3.1 18:33:16 10° N 18:37:33 58° WNW 18:41:49 10° SSW
Cosmos 1939 Rocket 2.9 18:34:30 10° S 18:38:23 75° WSW 18:42:23 10° NNW
Starlink AQ 3.6 18:35:41 10° W 18:38:00 49° W 18:38:00 49° W
Cosmos 2366 rocket 3.9 18:33:33 10° S 18:39:39 62° E 18:45:51 10° NNE
CZ-4C R/B 4.1 18:33:04 10° NW 18:39:49 43° WSW 18:47:23 10° S
Starlink AS 3.7 18:37:56 10° W 18:40:08 45° W 18:40:08 45° W
Starlink BA 3.8 18:38:09 10° W 18:40:21 45° W 18:40:21 45° W
Starlink AU 3.8 18:38:23 10° W 18:40:34 45° W 18:40:34 45° W
Starlink AT 3.8 18:38:36 10° W 18:40:47 44° W 18:40:47 44° W
Starlink BB 3.8 18:38:50 10° W 18:41:00 44° W 18:41:00 44° W
Starlink BC 3.8 18:39:03 10° W 18:41:13 44° W 18:41:13 44° W
Starlink BK 3.9 18:39:17 10° W 18:41:26 43° W 18:41:26 43° W
Starlink AY 3.9 18:39:30 10° W 18:41:39 43° W 18:41:39 43° W
Starlink AW 3.9 18:39:43 10° W 18:41:52 43° W 18:41:52 43° W
Starlink BJ 3.9 18:39:56 10° W 18:42:03 42° W 18:42:03 42° W
Cosmos 1953 Rocket 3.4 18:38:32 10° S 18:43:00 71° E 18:44:05 49° NNE
Starlink AV 3.9 18:40:09 10° W 18:42:16 42° W 18:42:16 42° W
Starlink BD 3.9 18:40:22 10° W 18:42:29 42° W 18:42:29 42° W
Starlink BE 3.9 18:40:33 10° W 18:42:39 41° W 18:42:39 41° W
Starlink BM 4.0 18:40:48 10° W 18:42:54 41° W 18:42:54 41° W
Starlink AX 4.0 18:41:02 10° W 18:43:07 41° W 18:43:07 41° W
Starlink BH 4.0 18:41:16 10° W 18:43:21 40° W 18:43:21 40° W
Starlink AZ 4.0 18:41:28 10° W 18:43:32 40° W 18:43:32 40° W
Starlink BG 4.0 18:41:42 10° W 18:43:46 40° W 18:43:46 40° W
Starlink BF 4.0 18:41:55 10° W 18:43:58 40° W 18:43:58 40° W
Starlink BL 4.1 18:42:07 10° W 18:44:10 39° W 18:44:10 39° W
BREEZE-M DEB (TANK) 4.5 18:43:06 10° SW 18:43:51 17° SSW 18:43:51 17° SSW
Starlink AH 4.1 18:42:21 10° W 18:44:23 39° W 18:44:23 39° W
Starlink AC 4.1 18:42:36 10° W 18:44:37 39° W 18:44:37 39° W
Starlink X 4.1 18:42:48 10° W 18:44:49 39° W 18:44:49 39° W
Starlink AE 4.1 18:42:59 10° W 18:45:00 38° W 18:45:00 38° W
Starlink Z 4.1 18:43:17 10° W 18:45:17 38° W 18:45:17 38° W
Starlink AK 4.2 18:43:29 10° W 18:45:29 38° W 18:45:29 38° W
Cosmos 2297 Rocket 2.1 18:40:58 10° SSW 18:46:34 69° ESE 18:48:25 43° NE
Starlink AL 4.2 18:43:42 10° W 18:45:41 37° W 18:45:41 37° W
Starlink AD 4.2 18:43:56 10° W 18:45:54 37° W 18:45:54 37° W
Starlink Y 4.2 18:44:23 10° W 18:46:21 37° W 18:46:21 37° W
Starlink AG 4.2 18:44:41 10° W 18:46:36 36° W 18:46:36 36° W
Starlink W 4.2 18:44:52 10° W 18:46:49 37° W 18:46:49 37° W
Starlink AJ 4.3 18:45:04 10° W 18:46:59 36° W 18:46:59 36° W
Cosmos 1758 Rocket 3.8 18:44:00 10° SSW 18:48:17 65° WNW 18:51:32 17° N
Starlink AM 4.3 18:45:35 10° W 18:47:29 35° W 18:47:29 35° W
Starlink AP 4.3 18:45:45 10° W 18:47:39 35° W 18:47:39 35° W
Starlink AA 4.3 18:46:01 10° W 18:47:54 35° W 18:47:54 35° W
Starlink AF 4.3 18:46:12 10° W 18:48:04 35° W 18:48:04 35° W
Starlink AB 4.4 18:46:25 10° W 18:48:18 34° W 18:48:18 34° W
Starlink AN 4.4 18:46:40 10° W 18:48:31 34° W 18:48:31 34° W
Cosmos 1125 Rocket 4.5 18:46:33 10° SW 18:51:31 45° WNW 18:55:37 15° N
SJ-11-01 4.2 18:56:12 69° NE 18:56:12 69° NE 19:00:42 10° N
ATLAS CENTAUR R/B 2.4 18:52:07 10° NW 18:54:50 33° N 18:54:50 33° N
Cosmos 2227 Rocket 2.0 18:53:03 10° SSW 18:58:42 77° ESE 18:59:59 54° NE
Cosmos 1727 Rocket 3.8 18:55:24 10° N 19:01:39 83° E 19:07:50 10° S
ISS -0.9 18:59:37 10° SSW 18:59:47 11° SSW 18:59:47 11° SSW
BREEZE-M DEB (TANK) 4.1 18:45:41 10° W 19:03:41 83° S 19:05:06 55° ESE
CZ-4 R/B 3.8 19:02:48 10° SSW 19:06:06 24° W 19:09:30 10° NW
Cosmos 1943 4.3 19:07:58 10° NNW 19:11:24 29° NNE 19:11:24 29° NNE
ARGOS 3.8 19:18:09 42° N 19:18:09 42° N 19:21:46 10° N
SL-8 Rocket 4.4 19:10:45 10° SSW 19:16:59 62° WNW 19:23:16 10° N
ADEOS Rocket 3.1 19:15:39 10° NNE 19:22:03 89° ESE 19:29:10 10° SSW
USA 267 3.6 19:41:23 51° NNE 19:41:45 52° N 19:48:02 10° WNW
Ariane Rocket 4.2 19:40:07 11° SSW 19:44:38 40° W 19:49:26 10° NNW
H-2A R/B 3.5 19:55:45 30° NW 19:55:45 30° NW 19:58:25 10° NNW
SL-16 R/B 3.8 20:02:59 10° NW 20:07:53 30° WSW 20:09:13 27° SW
ATLAS 5 CENTAUR R/B 4.3 20:10:34 10° NW 20:12:16 17° NNW 20:12:16 17° NNW
ATLAS 5 CENTAUR R/B 3.9 20:19:29 10° NW 20:55:42 - SE 20:24:37 77° SW
Cosmos 2297 Rocket 4.0 20:26:15 10° WSW 20:30:17 28° WNW 20:30:17 28° WNW
Cosmos 2227 Rocket 4.2 20:38:37 10° W 20:41:52 24° WNW 20:41:52 24° WNW
